Regional Weather Roundup
Issued by NWS

Home | Current Version | Previous Version | Text Only | Print | Product List | Glossary Off
Versions: 1 2 3 4 5 6 7 8 9 10 11 12 13 14 15 16 17 18 19 20 21 22 23 24 25 26 27

000
ASUS45 KBOU 261810
RWRCO

WEATHER ROUNDUP FOR COLORADO
NATIONAL WEATHER SERVICE DENVER/BOULDER CO
1200 PM MDT MON SEP 26 2016

NOTE: "FAIR" INDICATES FEW OR NO CLOUDS BELOW 12000 FEET WITH NO
SIGNIFICANT WEATHER AND/OR OBSTRUCTIONS TO VISIBILITY.

COZ001>005-013-030-031-261900-
...NORTHWEST COLORADO...

CITY           SKY/WX    TMP DP  RH WIND       PRES   REMARKS
CRAIG          FAIR      61  35  37 N3        30.48F
HAYDEN         FAIR      61  28  29 SE5       30.48F
MEEKER         FAIR      60  35  39 CALM      30.48F
MOUNT WERNER   NOT AVBL
STEAMBOAT SPGS FAIR      58  33  38 CALM      30.49F
WALDEN           N/A     55  27  33 CALM      30.55F
$$

COZ006>008-011-261900-
...WEST CENTRAL VALLEYS...

CITY           SKY/WX    TMP DP  RH WIND       PRES   REMARKS
GRAND JUNCTION FAIR      64  37  36 VRB3      30.42F
MONTROSE       FAIR      63  38  39 N5        30.48F
EAGLE          SUNNY     57  28  33 CALM      30.51F
RIFLE          FAIR      60  39  45 VRB3      30.45F
DELTA          NOT AVBL
NUCLA          FAIR      63  36  36 NW5       30.50F
$$

COZ017>023-064>068-261900-
...SOUTHWEST COLORADO...

CITY           SKY/WX    TMP DP  RH WIND       PRES   REMARKS
DURANGO        FAIR      63  35  35 W10       30.47F
CORTEZ         FAIR      67  38  34 W7        30.44F
PAGOSA SPRINGS FAIR      64  32  29 SW3       30.49F
TELLURIDE      FAIR      60  27  29 CALM      30.59F
WOLF CREEK PAS FAIR      50  30  46 NE6       30.76S
$$

COZ009-010-012-014-032>034-037-058>063-261900-
...CENTRAL COLORADO...

CITY           SKY/WX    TMP DP  RH WIND       PRES   REMARKS
ASPEN          FAIR      60  32  34 VRB6      30.51F
BUENA VISTA    FAIR      60  28  29 CALM      30.52F
COPPER MTN     FAIR      54  19  26 CALM      30.73F
BERTHOUD PASS  FAIR      43  30  61 NE7       30.75F
COTTONWOOD PAS FAIR      57  23  26 CALM      30.62F
GUNNISON       FAIR      56  31  38 CALM      30.55F
KREMMLING      FAIR      55  23  28 CALM      30.54F
LEADVILLE      FAIR      58  14  17 CALM      30.59F
MONARCH PASS   FAIR      45  28  53 SW13G22   30.83F
SALIDA         FAIR      62  31  30 CALM      30.56F
SUNLIGHT       FAIR      55  32  41 S8        30.70F
WILKERSON PASS FAIR      52  16  24 CALM      30.72F
$$

COZ069>075-261900-
...SAN LUIS VALLEY/SANGRE DE CRISTO MOUNTAINS...

CITY           SKY/WX    TMP DP  RH WIND       PRES   REMARKS
ALAMOSA        FAIR      61  32  33 MISG      30.51F
LA VETA PASS   FAIR      55  27  33 MISG      30.63F
SAGUACHE       NOT AVBL
$$

COZ035-036-038>040-261900-
...NORTHERN COLORADO FRONT RANGE...

CITY           SKY/WX    TMP DP  RH WIND       PRES   REMARKS
DENVER INTL AP FAIR      71  29  21 SE3       30.40F
DMNS CITY PARK   N/A     71  31  23 E6        30.39F
AURORA         SUNNY     70  29  22 SW2       30.41F
FRONT RANGE AP SUNNY     72  30  21 CALM      30.41F
ERIE MUNI ARPT FAIR      71  28  20 SE8       30.38F
BOULDER MUN AP FAIR      72  32  23 NE7       30.39F
CENTENNIAL     FAIR      68  28  22 VRB5      30.42F
BROOMFIELD     SUNNY     70  30  23 E9        30.41F
FORT COLLINS   FAIR      70  34  26 E5        30.39F
LONGMONT       FAIR      73  32  22 E6        30.40F
$$

COZ041-046-047-076>085-087-088-261900-
...PIKES PEAK/PALMER DIVIDE AND SOUTHERN FOOTHILLS...

CITY           SKY/WX    TMP DP  RH WIND       PRES   REMARKS
COLO. SPRINGS  FAIR      71  24  17 VRB3      30.43F
A. F. ACADEMY  SUNNY     70  25  18 VRB5      30.44F
SCHRIEVER AFB  NOT AVBL
ELLICOTT       NOT AVBL
FALCON         FAIR      68  25  19 NE8       30.48F
FORT CARSON    FAIR      70  29  22 VRB7      30.41F
LIMON          FAIR      70  30  22 VRB6      30.41F
MONUMENT HILL  FAIR      64  28  25 S3        30.49F
TRINIDAD       FAIR      67  32  27 VRB3      30.42F
$$

COZ042>045-048>051-090-091-261900-
...NORTHEAST COLORADO...

CITY           SKY/WX    TMP DP  RH WIND       PRES   REMARKS
GREELEY ARPT   FAIR      70  36  28 S6        30.40F
AKRON          FAIR      68  33  27 MISG      30.38F
BURLINGTON     FAIR      72  32  23 W10G17    30.36F
WRAY           NOT AVBL
STERLING       FAIR      73  37  27 N9G20     30.33F
HOLYOKE        FAIR      75  36  23 NW10      30.33F
FORT MORGAN    FAIR      71  32  23 W7        30.38F
$$

COZ086-089-092>099-261900-
...SOUTHEAST COLORADO...

CITY           SKY/WX    TMP DP  RH WIND       PRES   REMARKS
PUEBLO         FAIR      73  31  21 E7        30.37F
LA JUNTA       FAIR      70  34  26 VRB5      30.38F
LAMAR          FAIR      71  35  26 VRB3      30.34F
SPRINGFIELD    NOT AVBL
$$




USA.gov is the U.S. government's official web portal to all federal, state and local government web resources and services.